FW9403 Weather Reports


Display with metric or nautical units.
time (UTC)temp
F
wind
direction
speed
MPH
gust
MPH
rain 1hr
in
rain 24hr
in
rain mn
in
humidity
%
barometer
mb
20210917141136 80 142 2.0 3.0 0.00 0.02 0.02 94 1016.7
20210917140634 80 242 2.0 3.0 0.00 0.02 0.02 94 1016.9
20210917140132 80 357 1.0 2.0 0.00 0.02 0.02 94 1016.9
20210917135630 80 163 2.0 3.0 0.00 0.02 0.02 94 1016.7
20210917135129 79 111 5.0 6.0 0.00 0.02 0.02 94 1016.7
20210917134628 79 146 3.0 5.0 0.00 0.02 0.02 94 1016.8
20210917134123 79 88 5.0 6.0 0.00 0.02 0.02 94 1016.5
20210917133624 79 109 4.0 5.0 0.00 0.02 0.02 94 1016.5
20210917133122 79 124 4.0 6.0 0.00 0.02 0.02 94 1016.5
20210917132621 78 120 3.0 5.0 0.00 0.02 0.02 94 1016.3
20210917132117 78 90 4.0 6.0 0.00 0.02 0.02 94 1016.0
20210917131616 78 103 5.0 6.0 0.00 0.02 0.02 94 1016.3
20210917131115 78 100 5.0 6.0 0.00 0.02 0.02 94 1016.0
20210917130614 78 109 4.0 6.0 0.00 0.02 0.02 94 1015.7
20210917130114 78 89 4.0 5.0 0.00 0.02 0.02 94 1015.8
20210917125614 77 80 4.0 6.0 0.00 0.02 0.02 94 1015.7
20210917125113 77 108 5.0 6.0 0.00 0.02 0.02 94 1015.9
20210917124612 77 73 5.0 7.0 0.00 0.02 0.02 94 1015.7
20210917124110 77 39 3.0 6.0 0.00 0.02 0.02 94 1015.7
20210917123608 77 76 5.0 6.0 0.00 0.02 0.02 94 1015.7
20210917123107 77 86 3.0 5.0 0.00 0.02 0.02 94 1015.7
20210917122605 77 57 2.0 3.0 0.00 0.02 0.02 94 1015.6
20210917122104 77 10 1.0 2.0 0.00 0.02 0.02 94 1015.6
20210917121602 77 8 1.0 3.0 0.00 0.02 0.02 94 1015.4
20210917121102 77 51 3.0 3.0 0.00 0.02 0.02 94 1015.5
20210917120559 77 101 2.0 2.0 0.00 0.02 0.02 94 1015.0
20210917120058 77 89 3.0 3.0 0.00 0.02 0.02 94 1014.9
20210917115558 77 101 2.0 3.0 0.00 0.02 0.02 94 1015.1
20210917115056 77 18 2.0 3.0 0.00 0.02 0.02 94 1015.1
20210917114555 77 112 2.0 3.0 0.00 0.02 0.02 94 1015.1
20210917114048 77 127 2.0 3.0 0.00 0.02 0.02 94 1014.9
20210917113546 77 114 2.0 6.0 0.00 0.02 0.02 94 1015.2
20210917113043 77 124 3.0 5.0 0.00 0.02 0.02 94 1015.3
20210917112542 77 135 5.0 7.0 0.00 0.02 0.02 94 1015.4
20210917112042 77 137 5.0 6.0 0.00 0.02 0.02 94 1015.3
20210917111540 77 142 5.0 7.0 0.00 0.02 0.02 94 1015.4
20210917111039 77 108 3.0 9.0 0.00 0.02 0.02 94 1015.5
20210917110538 77 136 5.0 9.0 0.00 0.02 0.02 94 1015.3
20210917110037 77 131 5.0 8.0 0.00 0.02 0.02 94 1015.5
20210917105536 77 94 7.0 8.0 0.00 0.02 0.02 94 1015.4
20210917105035 77 136 4.0 8.0 0.00 0.02 0.02 94 1015.0
20210917104533 77 111 4.0 6.0 0.00 0.02 0.02 94 1015.1
20210917104031 77 95 3.0 3.0 0.00 0.02 0.02 94 1014.8
20210917103528 77 105 3.0 3.0 0.00 0.02 0.02 94 1014.7
20210917103027 77 118 3.0 3.0 0.00 0.02 0.02 94 1014.6
20210917102526 77 24 1.0 3.0 0.00 0.02 0.02 94 1014.5
20210917102024 77 345 1.0 1.0 0.00 0.02 0.02 94 1014.2
20210917101522 77 7 1.0 2.0 0.00 0.02 0.02 94 1014.4
20210917101022 77 288 1.0 2.0 0.00 0.02 0.02 94 1014.3
20210917100520 77 353 1.0 1.0 0.00 0.02 0.02 94 1014.3
20210917100019 77 320 0.0 1.0 0.00 0.02 0.02 94 1014.2
20210917095518 77 325 0.0 1.0 0.00 0.02 0.02 94 1014.3
20210917095018 77 339 1.0 2.0 0.00 0.02 0.02 94 1014.0
20210917094516 77 13 2.0 3.0 0.00 0.02 0.02 94 1014.1
20210917094014 77 13 2.0 3.0 0.00 0.02 0.02 94 1014.1
20210917093513 77 254 1.0 2.0 0.00 0.02 0.02 94 1013.9
20210917093011 78 341 1.0 3.0 0.00 0.02 0.02 94 1013.8
20210917092509 78 174 3.0 3.0 0.00 0.02 0.02 94 1013.9
20210917092008 78 139 3.0 5.0 0.00 0.02 0.02 94 1013.8
20210917091506 78 242 2.0 3.0 0.00 0.02 0.02 94 1013.9
20210917091006 78 176 3.0 6.0 0.04 0.02 0.02 94 1013.8
20210917090504 78 168 4.0 7.0 0.11 0.02 0.02 94 1013.7
20210917090003 78 62 2.0 3.0 0.07 0.01 0.01 94 1013.7
20210917085503 78 13 1.0 2.0 0.00 0.00 0.00 94 1013.8
20210917085002 78 53 3.0 3.0 0.00 0.00 0.00 94 1013.9
20210917084501 77 80 3.0 3.0 0.00 0.00 0.00 94 1014.0
20210917084000 78 77 2.0 3.0 0.00 0.00 0.00 94 1013.7
20210917083458 78 8 2.0 2.0 0.00 0.00 0.00 94 1013.7
20210917082958 78 2 2.0 2.0 0.00 0.00 0.00 94 1013.4
20210917082457 78 16 2.0 2.0 0.00 0.00 0.00 94 1013.5
20210917081957 78 349 1.0 2.0 0.00 0.00 0.00 94 1013.7
20210917081457 78 25 1.0 2.0 0.00 0.00 0.00 94 1013.6
20210917080956 78 275 2.0 2.0 0.00 0.00 0.00 94 1013.8
20210917080446 78 265 1.0 2.0 0.00 0.00 0.00 94 1013.7
20210917075942 78 279 1.0 1.0 0.00 0.00 0.00 94 1013.6
20210917075441 78 347 1.0 1.0 0.00 0.00 0.00 94 1013.4
20210917074940 78 345 1.0 1.0 0.00 0.00 0.00 94 1013.4
20210917074438 78 358 1.0 1.0 0.00 0.00 0.00 94 1013.0
20210917073937 78 344 1.0 2.0 0.00 0.00 0.00 94 1013.3
20210917073435 78 343 1.0 3.0 0.00 0.00 0.00 94 1013.4
20210917072935 78 31 2.0 3.0 0.00 0.00 0.00 94 1013.5
20210917072433 78 22 2.0 3.0 0.00 0.00 0.00 94 1013.3
20210917071932 78 116 2.0 3.0 0.00 0.00 0.00 94 1013.6
20210917071432 78 109 3.0 3.0 0.00 0.00 0.00 94 1013.6
20210917070929 78 101 2.0 5.0 0.00 0.00 0.00 94 1013.4
20210917070429 78 95 5.0 6.0 0.00 0.00 0.00 94 1013.5
20210917065929 78 98 4.0 5.0 0.00 0.00 0.00 94 1013.3
20210917065428 78 86 3.0 6.0 0.00 0.00 0.00 94 1013.4
20210917064926 78 120 4.0 5.0 0.00 0.00 0.00 94 1013.5
20210917064423 78 109 4.0 5.0 0.00 0.00 0.00 94 1013.5
20210917063920 78 79 2.0 5.0 0.00 0.00 0.00 94 1013.5
20210917063415 78 127 3.0 6.0 0.00 0.00 0.00 94 1013.8
20210917062915 78 132 5.0 6.0 0.00 0.00 0.00 94 1013.7
20210917062414 78 142 3.0 5.0 0.00 0.00 0.00 94 1013.8
20210917061913 78 141 5.0 6.0 0.00 0.00 0.00 94 1013.6
20210917061412 78 96 4.0 6.0 0.00 0.00 0.00 94 1013.8
20210917060912 78 122 4.0 5.0 0.00 0.00 0.00 94 1013.8
20210917060411 78 144 3.0 5.0 0.00 0.00 0.00 94 1013.9
20210917055911 78 114 3.0 5.0 0.00 0.00 0.00 94 1014.0
20210917055410 78 84 2.0 3.0 0.00 0.00 0.00 94 1013.9
20210917054909 78 118 3.0 3.0 0.00 0.00 0.00 94 1013.9
20210917054408 78 96 2.0 3.0 0.00 0.00 0.00 94 1014.3
20210917053907 78 123 4.0 6.0 0.00 0.00 0.00 94 1014.0
20210917053405 78 93 2.0 5.0 0.00 0.00 0.00 94 1014.1
20210917052903 78 82 2.0 5.0 0.00 0.00 0.00 94 1014.1
20210917052401 78 131 3.0 3.0 0.00 0.00 0.00 94 1014.2
20210917051901 78 250 2.0 3.0 0.00 0.00 0.00 94 1014.2
20210917051401 77 152 4.0 5.0 0.00 0.00 0.00 94 1014.1
20210917050858 77 110 3.0 3.0 0.00 0.00 0.00 94 1014.2
20210917050357 77 115 3.0 5.0 0.00 0.00 0.00 94 1014.1
20210917045856 77 110 3.0 6.0 0.00 0.75 0.75 94 1014.2
20210917045354 77 110 3.0 3.0 0.00 0.75 0.75 94 1014.2
20210917044852 77 140 3.0 5.0 0.00 0.75 0.75 94 1014.4
20210917044351 77 113 2.0 3.0 0.00 0.75 0.75 94 1014.2
20210917043849 77 130 3.0 5.0 0.00 0.75 0.75 94 1014.2
20210917043348 77 155 3.0 5.0 0.00 0.75 0.75 94 1013.9
20210917042846 77 118 4.0 6.0 0.00 0.75 0.75 94 1014.2
20210917042346 77 59 3.0 5.0 0.00 0.75 0.75 94 1014.1
20210917041846 78 55 2.0 3.0 0.00 0.75 0.75 94 1013.9
20210917041345 78 21 2.0 3.0 0.00 0.75 0.75 94 1014.1
20210917040843 78 71 2.0 3.0 0.00 0.75 0.75 94 1014.0
20210917040342 78 12 2.0 3.0 0.00 0.75 0.75 94 1014.0
20210917035840 78 93 3.0 6.0 0.00 0.75 0.75 94 1014.0
20210917035339 78 20 2.0 3.0 0.00 0.75 0.75 94 1013.8
20210917034838 78 98 4.0 5.0 0.00 0.75 0.75 94 1014.0
20210917034337 78 113 3.0 5.0 0.00 0.75 0.75 94 1014.0
20210917033835 78 90 4.0 6.0 0.00 0.75 0.75 94 1014.1
20210917033334 78 106 3.0 6.0 0.00 0.75 0.75 94 1014.0
20210917032832 78 143 4.0 5.0 0.00 0.75 0.75 94 1014.0
20210917032332 78 130 4.0 5.0 0.00 0.75 0.75 94 1013.9
20210917031831 77 130 5.0 6.0 0.00 0.75 0.75 94 1013.7
20210917031329 77 68 4.0 6.0 0.00 0.75 0.75 94 1014.0
20210917030828 77 78 2.0 3.0 0.00 0.75 0.75 94 1013.9
20210917030325 77 109 2.0 3.0 0.00 0.75 0.75 94 1013.9
20210917025825 77 107 2.0 3.0 0.00 0.75 0.75 94 1014.1
20210917025318 77 79 2.0 3.0 0.00 0.75 0.75 94 1013.9
20210917024818 77 86 4.0 5.0 0.00 0.75 0.75 94 1014.0
20210917024316 77 113 3.0 3.0 0.00 0.75 0.75 94 1013.9
20210917023816 77 110 2.0 3.0 0.00 0.75 0.75 94 1014.0
20210917023315 77 115 3.0 3.0 0.00 0.75 0.75 94 1014.0
20210917022808 77 2 1.0 2.0 0.00 0.75 0.75 94 1013.9
20210917022308 78 6 1.0 2.0 0.00 0.75 0.75 94 1014.2
20210917021807 78 20 2.0 2.0 0.00 0.75 0.75 94 1014.4
20210917021305 78 18 1.0 2.0 0.00 0.75 0.75 94 1014.3
20210917020804 78 0 1.0 2.0 0.00 0.75 0.75 94 1014.2
20210917020256 78 21 1.0 2.0 0.00 0.75 0.75 94 1014.3
20210917015755 78 350 1.0 1.0 0.00 0.75 0.75 94 1014.4
20210917015253 78 315 0.0 1.0 0.00 0.75 0.75 94 1014.3
20210917014753 78 85 3.0 3.0 0.00 0.75 0.75 94 1014.4
20210917014251 78 324 1.0 1.0 0.00 0.75 0.75 94 1014.2
20210917013751 78 341 1.0 2.0 0.00 0.75 0.75 94 1014.1
20210917013250 78 79 3.0 5.0 0.00 0.75 0.75 94 1013.9
20210917012746 78 10 1.0 2.0 0.00 0.75 0.75 94 1013.9
20210917012244 78 319 1.0 1.0 0.00 0.75 0.75 94 1013.8
20210917011744 78 260 2.0 2.0 0.00 0.75 0.75 94 1013.7
20210917011244 78 273 1.0 1.0 0.00 0.75 0.75 94 1013.7
20210917010740 78 272 1.0 1.0 0.00 0.75 0.75 94 1013.7
20210917010240 78 279 1.0 1.0 0.00 0.75 0.75 94 1013.8
20210917005738 78 280 1.0 2.0 0.00 0.75 0.75 94 1013.5
20210917005237 78 333 1.0 1.0 0.00 0.75 0.75 94 1013.3
20210917004734 78 7 1.0 2.0 0.00 0.75 0.75 94 1013.3
20210917004233 78 291 1.0 1.0 0.00 0.75 0.75 94 1013.2
20210917003731 78 254 2.0 2.0 0.00 0.75 0.75 94 1013.1
20210917003230 78 282 1.0 1.0 0.00 0.75 0.75 94 1013.1
20210917002730 79 249 2.0 2.0 0.00 0.75 0.75 94 1013.0
20210917002229 79 238 2.0 2.0 0.00 0.75 0.75 94 1012.8
20210917001728 79 270 2.0 3.0 0.00 0.75 0.75 94 1012.7
20210917001226 79 251 2.0 2.0 0.00 0.75 0.75 94 1012.7
20210917000725 79 276 0.0 1.0 0.00 0.75 0.75 93 1012.6
20210917000226 79 276 1.0 2.0 0.00 0.75 0.75 93 1012.7
20210916235722 80 298 0.0 2.0 0.00 0.75 0.75 93 1012.8
20210916235222 80 298 0.0 0.0 0.00 0.75 0.75 93 1012.7
20210916234719 80 278 1.0 3.0 0.00 0.75 0.75 92 1012.5
20210916234214 80 264 1.0 2.0 0.00 0.75 0.75 92 1012.5
20210916233714 80 275 1.0 1.0 0.00 0.75 0.75 92 1012.9
20210916233214 80 290 0.0 1.0 0.00 0.75 0.75 91 1012.7
20210916232712 80 293 0.0 1.0 0.00 0.75 0.75 91 1012.5
20210916232210 81 297 1.0 3.0 0.00 0.75 0.75 90 1012.7
20210916231709 81 292 2.0 2.0 0.00 0.75 0.75 90 1012.6
20210916231207 81 277 2.0 2.0 0.00 0.75 0.75 89 1012.3
20210916230704 81 289 0.0 2.0 0.00 0.75 0.75 89 1012.5
20210916230202 81 294 0.0 1.0 0.00 0.75 0.75 88 1012.5
20210916225702 82 251 3.0 3.0 0.00 0.75 0.75 87 1012.1
20210916225201 82 280 1.0 1.0 0.00 0.75 0.75 86 1012.5
20210916224658 83 298 1.0 5.0 0.00 0.75 0.75 84 1012.4
20210916224152 83 186 3.0 5.0 0.00 0.75 0.75 84 1012.3
20210916223652 82 285 2.0 5.0 0.00 0.75 0.75 85 1012.2
20210916223151 82 233 3.0 6.0 0.00 0.75 0.75 85 1012.0
20210916222651 82 196 2.0 5.0 0.00 0.75 0.75 86 1012.1
20210916222147 82 155 3.0 6.0 0.00 0.75 0.75 86 1012.0
20210916221647 82 184 5.0 6.0 0.00 0.75 0.75 86 1011.9
20210916221146 82 138 4.0 7.0 0.00 0.75 0.75 87 1011.6
20210916220643 82 217 5.0 8.0 0.00 0.75 0.75 89 1012.0
20210916220143 82 169 4.0 6.0 0.00 0.75 0.75 91 1012.0
20210916215641 81 118 1.0 6.0 0.00 0.75 0.75 92 1011.9
20210916215140 81 215 3.0 6.0 0.00 0.75 0.75 92 1012.0
20210916214639 80 217 4.0 9.0 0.00 0.75 0.75 93 1011.7
20210916214138 80 247 4.0 7.0 0.00 0.75 0.75 93 1011.7
20210916213636 80 214 5.0 7.0 0.00 0.75 0.75 94 1011.8
20210916213135 81 205 4.0 6.0 0.00 0.75 0.75 94 1011.7
20210916212634 81 268 1.0 5.0 0.00 0.75 0.75 94 1011.7
20210916212133 81 298 1.0 5.0 0.00 0.75 0.75 94 1011.5
20210916211632 81 301 1.0 2.0 0.00 0.75 0.75 94 1011.3
20210916211132 81 196 2.0 2.0 0.00 0.75 0.75 94 1011.6
20210916210631 81 295 1.0 3.0 0.00 0.75 0.75 94 1011.5
20210916210129 81 272 2.0 2.0 0.00 0.75 0.75 94 1011.4
20210916205629 81 314 1.0 2.0 0.00 0.75 0.75 94 1011.6
20210916205128 81 241 2.0 6.0 0.00 0.75 0.75 94 1011.7
20210916204627 81 241 2.0 3.0 0.00 0.75 0.75 94 1011.5
20210916204124 81 272 3.0 3.0 0.11 0.75 0.75 94 1011.7
20210916203622 81 232 1.0 3.0 0.35 0.75 0.75 94 1011.7
20210916203120 81 175 1.0 7.0 0.16 0.72 0.72 93 1011.7
20210916202610 82 257 1.0 7.0 0.00 0.69 0.69 93 1011.7
20210916202108 82 208 3.0 5.0 0.00 0.69 0.69 94 1011.5
20210916201608 82 187 4.0 6.0 0.00 0.69 0.69 94 1011.6
20210916201108 81 198 3.0 7.0 0.00 0.69 0.69 94 1011.9
20210916200605 81 164 5.0 6.0 0.00 0.69 0.69 94 1011.8
20210916200058 81 178 4.0 8.0 0.00 0.69 0.69 94 1011.8
20210916195557 81 174 6.0 8.0 0.00 0.69 0.69 94 1011.8
20210916195057 80 179 4.0 6.0 0.00 0.69 0.69 94 1011.9
20210916194556 80 167 3.0 5.0 0.00 0.69 0.69 94 1011.8
20210916194055 79 228 3.0 3.0 0.00 0.69 0.69 94 1011.7
20210916193554 79 204 2.0 3.0 0.07 0.69 0.69 94 1012.1
20210916193053 79 136 4.0 5.0 0.73 0.69 0.69 94 1012.0
20210916192551 78 159 3.0 6.0 1.93 0.67 0.67 94 1012.0
20210916192048 78 181 7.0 8.0 2.26 0.55 0.55 93 1012.1
20210916191548 80 182 7.0 10.0 1.03 0.32 0.32 91 1012.2
20210916191047 82 264 1.0 8.0 0.07 0.16 0.16 88 1012.2
20210916190542 83 185 6.0 18.0 0.00 0.15 0.15 86 1012.0
20210916190039 85 155 6.0 11.0 0.00 0.15 0.15 85 1011.8
20210916185539 85 113 7.0 11.0 0.00 0.15 0.15 84 1011.6
20210916185036 85 122 10.0 14.0 0.00 0.15 0.15 84 1011.6
20210916184536 86 130 9.0 14.0 0.00 0.15 0.15 83 1011.7
20210916184033 86 144 7.0 9.0 0.00 0.15 0.15 84 1011.9
20210916183532 87 156 5.0 9.0 0.00 0.15 0.15 81 1011.7
20210916183032 87 136 7.0 9.0 0.00 0.15 0.15 80 1011.8
20210916182529 87 151 7.0 9.0 0.00 0.15 0.15 80 1011.8
20210916182029 87 173 5.0 8.0 0.00 0.15 0.15 80 1011.7
20210916181513 87 196 5.0 8.0 0.00 0.15 0.15 79 1011.7
20210916181008 88 165 6.0 8.0 0.00 0.15 0.15 77 1011.8
20210916180507 90 177 4.0 7.0 0.00 0.15 0.15 76 1011.9
20210916180006 89 263 1.0 3.0 0.00 0.15 0.15 74 1012.1
20210916175507 88 156 3.0 7.0 0.00 0.15 0.15 76 1012.0
20210916175003 88 179 3.0 6.0 0.00 0.15 0.15 76 1012.0
20210916174501 88 158 4.0 9.0 0.00 0.15 0.15 76 1012.1
20210916173958 88 181 4.0 7.0 0.00 0.15 0.15 75 1012.0
20210916173456 89 260 3.0 7.0 0.00 0.15 0.15 76 1012.1
20210916172955 89 297 2.0 5.0 0.00 0.15 0.15 76 1012.2
20210916172454 87 187 3.0 6.0 0.00 0.15 0.15 77 1012.0
20210916171953 87 171 8.0 10.0 0.00 0.15 0.15 78 1012.1
20210916171451 88 162 6.0 10.0 0.00 0.15 0.15 77 1012.1
20210916170949 88 175 8.0 9.0 0.00 0.15 0.15 76 1012.1
20210916170447 88 195 3.0 9.0 0.00 0.15 0.15 77 1012.3
20210916165946 88 215 3.0 6.0 0.00 0.15 0.15 78 1012.3
20210916165445 87 193 5.0 8.0 0.00 0.15 0.15 77 1012.2
20210916164945 87 232 4.0 6.0 0.00 0.15 0.15 81 1012.4
20210916164443 87 176 5.0 8.0 0.00 0.15 0.15 79 1012.3
20210916163942 88 195 2.0 5.0 0.00 0.15 0.15 79 1012.4
20210916163436 87 243 2.0 6.0 0.00 0.15 0.15 81 1012.4
20210916162935 87 185 5.0 8.0 0.00 0.15 0.15 79 1012.6
20210916162434 87 210 2.0 5.0 0.00 0.15 0.15 79 1012.6
20210916161934 87 256 1.0 1.0 0.00 0.15 0.15 80 1012.6
20210916161432 87 302 1.0 5.0 0.00 0.15 0.15 79 1012.6
20210916160929 87 306 2.0 7.0 0.00 0.15 0.15 79 1012.6
20210916160429 87 166 4.0 7.0 0.00 0.15 0.15 82 1012.6
20210916155928 87 182 2.0 5.0 0.00 0.15 0.15 85 1012.7
20210916155428 86 154 5.0 8.0 0.00 0.15 0.15 85 1012.6
20210916154926 86 109 3.0 3.0 0.00 0.15 0.15 86 1012.6
20210916154424 86 217 2.0 5.0 0.00 0.15 0.15 87 1012.8
20210916153922 84 284 1.0 3.0 0.00 0.15 0.15 88 1012.6
20210916153420 84 153 4.0 5.0 0.00 0.15 0.15 89 1012.6
20210916152919 85 175 3.0 6.0 0.00 0.15 0.15 88 1012.4
20210916152418 85 162 7.0 7.0 0.00 0.15 0.15 89 1012.3
20210916151916 85 137 5.0 10.0 0.00 0.15 0.15 88 1012.4
20210916151415 86 182 6.0 8.0 0.00 0.15 0.15 88 1012.5
20210916150910 85 154 5.0 7.0 0.00 0.15 0.15 87 1012.6
20210916150410 85 171 3.0 5.0 0.00 0.15 0.15 87 1012.3
20210916145905 85 140 3.0 3.0 0.00 0.15 0.15 88 1012.3
20210916145404 86 156 4.0 5.0 0.00 0.15 0.15 89 1012.1
20210916144903 85 183 3.0 5.0 0.00 0.15 0.15 89 1012.0
20210916144402 84 123 3.0 3.0 0.00 0.15 0.15 91 1012.1
20210916143858 84 113 4.0 7.0 0.00 0.15 0.15 91 1011.9
20210916143357 84 101 6.0 8.0 0.00 0.15 0.15 91 1011.9
20210916142856 84 120 7.0 8.0 0.00 0.15 0.15 91 1011.9
20210916142356 84 128 7.0 8.0 0.00 0.15 0.15 91 1011.8
20210916141853 84 145 3.0 6.0 0.00 0.15 0.15 90 1011.9
20210916141351 83 153 7.0 9.0 0.00 0.15 0.15 91 1011.7